Погода в Анадыре

Погода в Анадыре : погода сейчас, прогноз погоды и архив. Всё, что Вы хотите узнать о погоде в Анадыре!

Хотите узнать прогноз погоды в Анадыре? Тогда Вам сюда: Погода в Анадыре

Поиск расширенной информации на нашем сайте:

Другие новости

Новости СМИ2

Главная страница сайта

Новости сайта

03.07.2017

Напоминаем, что на нашем специализированном сайте Метеоцентр.Азия вы можете получить высокодетализированные автоматические прогнозы погоды по пунктам России, СНГ и мира в авиационном формате (включающие направление и скорость ветра, видимость, явления погоды, количество и форму облачности, нижнюю и верхнюю границу облачности).


Погода в Анадыре - сегодня

Время (UTC), дата Ветер
(°,м/с) 
Видим.   Явления Облачность Т
(°С)
Тd
(°С)
f(%) Тe
(°С)
Pmin
(гПа)
dP
(гПа)
Po
(мм)
O2
(г/м3)
Тmin Tmax R s Состояние
почвы
21 17.09.17 360 (С) 1{03}  20000 м    8/8 600 м 
[Sc]
+2.9 -0.4 79 +4  1015.2  756  301           
00 18.09.17 140 (ЮВ) 3{05}  20000 м    5/1 600 м средняя, верхняя 
[Cu hum|Ac trans|Ci fib]
+5.2 -1 64 +4  1014.3  -0.9  755  299           
03 18.09.17 140 (ЮВ) 5{07}  20000 м    8/4 600 м кучево-дожд., средняя, верхняя 
[Cb cap|Ac trans|Cc]
+5 -2.9 57 +3  1013  -1.3  754  299           
06 18.09.17 140 (ЮВ) 7{09}  20000 м  {ливн. осадки}  9/8 600 м кучево-дожд., средняя 
[Cb cap|Ac As]
+4.6 +1.5 80 +2  1011.9  -1  753  298    +6.3  0.0     
09 18.09.17 140 (ЮВ) 5{07}  50000 м    9/5 600 м кучево-дожд., средняя 
[Cb cap|Ac As]
+4 -1.9 65 +2  1010.9  -1  753  299           
15 18.09.17 140 (ЮВ) 5{07}  20000 м  слаб. ливневой дождь  10/10 300 м кучево-дожд. 
[Cb cap]
+5 +2.5 84 +3  1008.4  -1.5  751  297           
18 18.09.17 090 (В) 5{07}  15000 м  слаб. ливневой дождь  10/8 300 м кучево-дожд., средняя 
[Cb cap|Ac und]
+4.8 +3.3 90 +3  1007.4  -1  750  296  +3.5    0.9    влажная 
21 18.09.17 180 (Ю) 5{07}  9000 м  ливневой дождь  10/10 300 м кучево-дожд. 
[Cb cap]
+4.7 +3 89 +3  1007.9  0.5  750  297           
00 19.09.17 050 (СВ) 3{05}  20000 м  слаб. ливневой дождь  10/10 300 м кучево-дожд. 
[Cb cap]
+3.7 +2.7 93 +2  1008.8  0.9  751  298           
03 19.09.17 050 (СВ) 5{07}  12000 м  слаб. ливневой дождь  10/10 300 м кучево-дожд. 
[Cb cap]
+3.9 +2.9 93 +2  1011  2.2  753  299           
06 19.09.17 360 (С) 3{05}  20000 м  {ливн. осадки}  9/6 600 м кучево-дожд., средняя 
[Cb cap|Ac trans]
+3.6 +1 83 +2  1013.4  2.3  754  300    +4.9     
09 19.09.17 360 (С) 1{03}  50000 м    9/5 600 м кучево-дожд., средняя 
[Cb cap|Ac trans]
+2.3 +0.4 87 +3  1015.5  2.1  756  302           
12 19.09.17 050 (СВ) 1{03}  50000 м    5/5 600 м 
[Sc]
+1.9 -0.9 82 +3  1016.8  1.3  757  303           
15 19.09.17 050 (СВ) 1{03}  50000 м    8/8 600 м 
[Sc]
+1.6 -1.5 80 +2  1017.8  0.9  758  304           
18 19.09.17 360 (С) 3{05}  20000 м    9/6 600 м средняя 
[Sc|Ac trans]
+1.4 -0.8 85 1019.5  1.7  759  304  +1.3        влажная 
21 19.09.17 050 (СВ) 3{05}  20000 м    9/6 600 м средняя 
[Sc|Ac trans]
+2.6 -0.7 79 +1  1021.3  1.9  760  304  +1.1         
00 20.09.17 тихо () {03}  20000 м    9/6 600 м средняя 
[Sc|Ac trans]
+4.8 -0.5 69 +5  1022.3  761  301           
03 20.09.17 320 (СЗ) 1{03}  20000 м    8/4 600 м кучево-дожд., средняя 
[Cb cap|Ac trans]
+5 -0.9 66 +6  1023.1  0.7  762  301           
06 20.09.17 140 (ЮВ) 1{03}  20000 м    4/4 600 м 
[Sc]
+3.8 +0.9 81 +5  1023.8  0.7  762  303    +5.8       
09 20.09.17 тихо () {01}  50000 м    8/8 600 м 
[Sc]
+3.4 +1.1 85 +3  1024.5  0.7  763  303           
12 20.09.17 тихо () {01}  50000 м    4/4 600 м 
[Sc]
+1.5 +0.1 90 +2  1025.1  0.5  763  306           
15 20.09.17 тихо () {01}  50000 м    3/0 средняя 
[Ac trans]
+0.8 -0.3 92 +1  1025.2  0.1  763  307           
18 20.09.17 140 (ЮВ) 3{05}  20000 м    1/0 верхняя 
[Ci fib]
+1.2 -0.5 88 1025.4  0.2  763  306  +0.3        замёрзшая 
21 20.09.17 140 (ЮВ) 5{07}  20000 м    3/3 600 м 
[Sc]
+5.2 +1.1 75 +3  1025.4  0.1  763  302           
00 21.09.17 160 (Ю) 7{09}  20000 м    1/1 600 м 
[Cu hum]
+6.2 +1.7 73 +4  1025.1  -0.3  763  300           
Время (UTC), дата Ветер
(°,м/с) 
Видим.   Явления Облачность Т
(°С)
Тd
(°С)
f(%) Тe
(°С)
Pmin
(гПа)
dP
(гПа)
Po
(мм)
O2
(г/м3)
Тmin Tmax R s Состояние
почвы

Для получения пояснительной информации подведите курсор к названию столбца.

ПОГОДА в Анадыре - архив

Всё, что Вы хотите узнать о погоде в Анадыре - удобно и подробно!

Выберите нужную дату (начиная с 1 января 2015* года) и нажмите кнопку "Найти".
Будут отображены архивные сводки погоды по пункту Анадырь, начиная с указанной даты.


Отображать данные в формате CSV (для использования в таблицах Excel)


Внимание! Наш архив погоды предназначен исключительно для личного некоммерческого использования в познавательных целях. Если Вам необходимы официальные справки о состоянии погоды (для производственных, юридических, коммерческих и т.п. целей), обращайтесь в органы Росгидромета.

*Примечание: данная дата относится к архиву по метеостанциям СССР (Россия, СНГ, Балтия).
Архив по метеостанциям Зарубежной Европы и Азии (кроме Китая) хранится 10 дней, по другим регионам земного шара (Китай, Африка, Америка, Австралия, Океания) - 1 день.

Анадырь - район местоположения метеостанции


Название, широта, долгота, высота метеостанции:
Анадырь (город) 64.8°ш. 177.6°д. 61 м над ур. моря [Российская Федерация]

Дополнительная информация

В oтличие oт бoльшинства пoгoдных сайтoв мы публикуем пoдрoбную метеoинфoрмацию в детальнoм прoфессиoнальнoм фoрмате.

Характеристики температуры и влажнoсти вoздуха измеряются на высoте 2 м в тени вдали oт зданий и деревьев.
Скoрoсть ветра измеряется на высoте 10 м (на урoвне рoста челoвека скoрoсть ветра ниже в 1.5-2 раза). Если метеoстанция нахoдится в гoрoде или в лесу, тo скoрoсть ветра занижена на 2-4 м/с пo сравнению с oткрытым местoм. Скoрoсть ветра над акватoриями крупных рек и oзёр, а также на вершинах хoлмoв на 2-5 м/с выше, чем в oбычных услoвиях.
Атмoсфернoе давление в разных тoчках местнoсти мoжет значительнo oтличаться oт давления на метеoстанции, в зависимoсти oт услoвий рельефа (при пoдъёме на 10 м давление пoнижается примернo на 1 мм рт.ст.).